Home > Weather > Yavatmal > Past weeks

Flag for India Past Weather in Yavatmal, Maharashtra, India — Yesterday and Last 2 Weeks

Now
77 °F

Partly sunny.


Feels Like: 78 °F
Forecast: 78 / 90 °F
Wind: No wind

Location: Nagpur Sonegaon

Current Time: Jun 25, 2016 at 7:09:57 AM

Latest Report: Jun 25, 2016 at 6:30 AM


Visibility: 2 mi

Pressure: 29.71 "Hg

Humidity: 94%

Dew Point: 75 °F

Location of YavatmalLocation

Past Weather in Yavatmal — Graph

°F

Yavatmal Temperature Yesterday

Maximum temperature yesterday: 90 °F (at 4:30 PM)
Minimum temperature yesterday: 77 °F (at 10:00 PM)
Average temperature yesterday: 84 °F

High & Low Weather Summary for the Past Weeks

 TemperatureHumidityPressure
High108 °F (Jun 11, 1:30 PM)100% (Jun 23, 4:00 AM)29.77 "Hg (Jun 23, 4:00 AM)
Low70 °F (Jun 23, 4:00 AM)21% (Jun 11, 4:30 PM)29.47 "Hg (Jun 16, 4:00 PM)
Average92 °F53%29.63 "Hg
* Reported Jun 10 5:30 AM — Jun 25 5:30 AM, Yavatmal, Weather by CustomWeather, © 2016

Note: Actual official high and low records may vary slightly from our data, if they occured in-between our weather recording intervals... More about our weather records

Advertising

Yavatmal Weather History for the Previous 24 Hours

Scroll right to see more
 ConditionsComfort  
Time TempWeatherWind HumidityBarometerVisibility
5:30 AM
Sat, Jun 25
77 °FPassing clouds.No wind89%29.68 "Hg1 mi
4:00 AM77 °FPassing clouds.5 mph89%29.62 "Hg2 mi
2:30 AM77 °FPartly cloudy.5 mph89%29.62 "Hg2 mi
2:00 AM77 °FPassing clouds.2 mph89%29.65 "Hg2 mi
1:30 AM77 °FPassing clouds.2 mph94%29.65 "Hg2 mi
12:30 AM77 °FThunderstorms. Mostly cloudy.2 mph94%29.71 "Hg1 mi
12:00 AM77 °FThunderstorms. Mostly cloudy.2 mph89%29.71 "Hg1 mi
10:30 PM
Fri, Jun 24
77 °FThunderstorms. Mostly cloudy.6 mph89%29.74 "Hg1 mi
10:00 PM77 °FThunderstorms. Mostly cloudy.6 mph89%29.74 "Hg1 mi
9:00 PM79 °FThunderstorms. Overcast.8 mph84%29.68 "HgN/A
8:30 PM82 °FThundershowers. Overcast.12 mph70%29.68 "HgN/A
8:00 PM88 °FPartly cloudy.5 mph70%29.59 "Hg2 mi
7:30 PM88 °FPassing clouds.5 mph70%29.59 "Hg2 mi
7:00 PM88 °FScattered clouds.5 mph75%N/A2 mi
6:30 PM90 °FScattered clouds.5 mph67%29.56 "Hg2 mi
6:00 PM90 °FScattered clouds.5 mph67%29.56 "Hg2 mi
5:30 PM90 °FScattered clouds.2 mph67%29.56 "Hg2 mi
5:00 PM90 °FScattered clouds.3 mph67%29.56 "Hg2 mi
4:30 PM90 °FScattered clouds.2 mph67%29.56 "Hg2 mi
3:30 PM86 °FBroken clouds.N/A75%29.59 "Hg2 mi
3:00 PM84 °FBroken clouds.2 mph84%29.59 "Hg2 mi
2:30 PM81 °FBroken clouds.3 mph89%29.59 "Hg2 mi
2:00 PM81 °FDrizzle. Broken clouds.No wind89%29.62 "Hg2 mi
1:00 PM79 °FThunderstorms. Partly sunny.2 mph89%29.71 "Hg1 mi
12:30 PM79 °FThunderstorms. Mostly cloudy.2 mph89%29.71 "Hg1 mi
12:00 PM79 °FThunderstorms. Mostly cloudy.5 mph89%29.71 "Hg1 mi
11:30 AM81 °FLight rain. Mostly cloudy.5 mph89%29.71 "Hg1 mi
10:30 AM82 °FLight rain. Mostly cloudy.2 mph89%29.71 "Hg1 mi
10:00 AM84 °FLight rain. Mostly cloudy.3 mph84%29.71 "Hg1 mi
9:30 AM86 °FLight rain. Mostly cloudy.3 mph75%29.71 "Hg1 mi
9:00 AM86 °FMostly cloudy.6 mph75%29.71 "Hg2 mi
8:30 AM84 °FMostly cloudy.7 mph79%29.68 "Hg2 mi
8:00 AM82 °FLight rain. Mostly cloudy.2 mph84%29.68 "Hg1 mi
7:30 AM82 °FLight rain. Mostly cloudy.6 mph84%29.68 "Hg1 mi
7:00 AM84 °FLight rain. More clouds than sun.2 mph79%29.68 "Hg2 mi
Weather by CustomWeather, © 2016

See weather overviewHow to use our weather pages